Flag for Canada Weather past 2 weeks in Taloyoak, Nunavut Territory, Canada

Now
1 °F

Passing clouds.


Feels Like: -10 °F
Forecast: -2 / 8 °F
Wind: 6 mph from Northwest

Location: Spence Bay Airport

Current Time: Oct 23, 2014 at 8:51:53 AM

Latest Report: Oct 23, 2014 at 8:00 AM


Visibility: 15 mi

Pressure: 30.35 "Hg

Humidity: 85%

Dew point: -2 °F

Location of TaloyoakLocation

Historic Weather in Taloyoak — Graph

°F

Taloyoak temperature yesterday

Maximum temperature yesterday: 3 °F (at 12:00 AM)
Minimum temperature yesterday: -8 °F (at 7:00 AM)
Average temperature yesterday: -4 °F

Past Weeks' High & Low Weather Summary

 TemperatureHumidityPressure
High28 °F (Oct 13, 8:00 AM)100% (Oct 9, 4:00 AM)30.41 "Hg (Oct 9, 4:00 AM)
Low-8 °F (Oct 22, 7:00 AM)70% (Oct 22, 8:00 AM)29.57 "Hg (Oct 13, 8:00 AM)
Average17 °F86%29.97 "Hg
* Reported Oct 8 7:00 AM — Oct 23 7:00 AM, Taloyoak, Weather by CustomWeather, © 2014

Note: Actual official high and low records may vary slightly from our data, if they occured in-between our weather recording intervals... More about our weather records

Advertising

Taloyoak weather history for previous 24 hours

 ConditionsComfort  
Time TempWeatherWind HumidityBarometerVisibility
7:00 AM
Oct 23
3 °FPassing clouds.17 mph78%30.34 "Hg15 mi
6:00 AM1 °FPassing clouds.8 mph78%30.34 "Hg15 mi
5:00 AM0 °FClear.9 mph84%30.33 "Hg15 mi
4:00 AM1 °FClear.6 mph71%30.33 "Hg15 mi
3:00 AM0 °FClear.15 mph78%30.31 "Hg15 mi
2:00 AM-2 °FClear.15 mph84%30.30 "Hg15 mi
1:00 AM-4 °FClear.20 mph77%30.29 "Hg15 mi
12:00 AM-6 °FClear.17 mph77%30.29 "Hg15 mi
11:00 PM
Oct 22
-6 °FClear.16 mph84%30.27 "Hg15 mi
10:00 PM-4 °FClear.16 mph77%30.25 "Hg15 mi
9:00 PM-6 °FClear.14 mph77%30.24 "Hg15 mi
8:00 PM-6 °FClear.10 mph77%30.24 "Hg15 mi
7:00 PM-4 °FClear.16 mph77%30.22 "Hg15 mi
6:00 PM-4 °FPassing clouds.12 mph77%30.22 "Hg15 mi
5:00 PM-4 °FPassing clouds.14 mph77%30.20 "Hg15 mi
4:00 PM-4 °FPassing clouds.13 mph71%30.18 "Hg15 mi
3:00 PM-4 °FPassing clouds.13 mph77%30.16 "Hg15 mi
2:00 PM-2 °FPassing clouds.7 mph71%30.14 "Hg15 mi
1:00 PM-4 °FPassing clouds.7 mph71%30.12 "Hg15 mi
12:00 PM-4 °FPassing clouds.9 mph77%30.11 "Hg15 mi
11:00 AM-6 °FPassing clouds.7 mph77%30.08 "Hg15 mi
10:00 AM-6 °FPassing clouds.7 mph77%30.05 "Hg15 mi
9:00 AM-8 °FPassing clouds.8 mph77%30.03 "Hg15 mi
8:00 AM-6 °FPassing clouds.8 mph70%30.01 "Hg15 mi
Weather by CustomWeather, © 2014

See weather overviewHow to use our weather pages